Guymon, OK

8:55 PM CST on November 20, 2017 (GMT -0600)
Guymon Municipal

Weather History for KGUY - July, 2013

Change the Weather History Date:

Sunday, July 14, 2013

  Actual Average Record
Temperature  
Mean Temperature 74 °F 80 °F  
Max Temperature 84 °F 95 °F 105 °F (2003)
Min Temperature 64 °F 65 °F 60 °F (2002)
Degree Days  
Heating Degree Days 0 0  
Month to date heating degree days 0 0  
Since 1 June heating degree days 0 8  
Since 1 July heating degree days 0 0  
Cooling Degree Days 9 15  
Month to date cooling degree days 224 200  
Year to date cooling degree days 864 588  
Since 1 June cooling degree days 660 480  
Growing Degree Days 23 (Base 50)    
Moisture  
Dew Point 58 °F    
Average Humidity 60    
Maximum Humidity 84    
Minimum Humidity 35    
Precipitation  
Precipitation 0.09 in 0.09 in 0.47 in (2001)
Month to date precipitation 0.49 1.18  
Year to date precipitation 5.77 10.37  
Snow  
Snow 0.00 in - - ()
Month to date snowfall 0.0  
Since 1 June snowfall T  
Since 1 July snowfall 0.0  
Snow Depth 0.00 in    
Sea Level Pressure  
Sea Level Pressure 29.91 in    
Wind  
Wind Speed 11 mph (SSE)    
Max Wind Speed 23 mph    
Max Gust Speed 30 mph    
Visibility 10 miles    
Events Rain , Thunderstorm    
T = Trace of Precipitation, MM = Missing Value Source: NWS Daily Summary

Daily Weather History Graph

Daily Weather History Graph

Search for Another Location

Airport or City:

Trip Planner

Search our weather history database for the weather conditions in past years. The results will help you decide how hot, cold, wet, or windy it might be!

Date:

Astronomy

Jul. 14, 2013 Rise Set
Actual Time 6:38 AM CDT 9:05 PM CDT
Civil Twilight 6:08 AM CDT 9:34 PM CDT
Nautical Twilight 5:31 AM CDT 10:11 PM CDT
Astronomical Twilight 4:51 AM CDT 10:52 PM CDT
Moon 12:46 PM CDT (7/14) No Moon Set
Length of Visible Light 15h 26m
Length of Day
14h 26m
Waxing Crescent, 35% of the Moon is Illuminated
Jul 14
Waxing Crescent
Jul 15
First Quarter
Jul 22
Full
Jul 29
Last Quarter
Aug 6
New

Hourly Weather History & Observations

Time (CDT) Temp. Heat Index Dew Point Humidity Pressure Visibility Wind Dir Wind Speed Gust Speed Precip Events Conditions
12:53 AM 81.0 °F - 50.0 °F 34% 29.80 in 10.0 mi South 11.5 mph - N/A   Clear
1:53 AM 79.0 °F - 50.0 °F 36% 29.79 in 10.0 mi SSW 10.4 mph - N/A   Clear
2:53 AM 77.0 °F - 51.1 °F 40% 29.79 in 10.0 mi SW 10.4 mph - N/A   Clear
3:53 AM 78.1 °F - 51.1 °F 39% 29.79 in 10.0 mi West 5.8 mph - N/A   Scattered Clouds
4:53 AM 75.9 °F - 52.0 °F 43% 29.79 in 10.0 mi WSW 9.2 mph - N/A   Clear
5:53 AM 77.0 °F - 50.0 °F 39% 29.77 in 10.0 mi SW 10.4 mph - N/A   Clear
6:53 AM 78.1 °F - 51.1 °F 39% 29.78 in 10.0 mi West 8.1 mph - N/A   Clear
7:53 AM 79.0 °F - 59.0 °F 50% 29.78 in 10.0 mi NNW 6.9 mph - N/A   Clear
8:53 AM 79.0 °F - 60.1 °F 52% 29.81 in 10.0 mi North 9.2 mph - N/A   Clear
9:53 AM 82.9 °F 83.2 °F 60.1 °F 46% 29.82 in 10.0 mi North 11.5 mph - N/A   Clear
10:53 AM 80.1 °F 80.1 °F 55.0 °F 42% 29.85 in 10.0 mi NNE 12.7 mph - N/A   Clear
11:53 AM 79.0 °F - 55.0 °F 44% 29.85 in 10.0 mi NNE 5.8 mph - 0.00 in Rain Light Rain
12:03 PM 78.8 °F - 55.4 °F 44% 30.01 in 10.0 mi NNE 8.1 mph - 0.00 in Thunderstorm Mostly Cloudy
12:53 PM 71.1 °F - 63.0 °F 75% 29.89 in 10.0 mi Calm Calm - 0.01 in Rain , Thunderstorm Light Thunderstorms and Rain
1:08 PM 69.8 °F - 64.4 °F 83% 30.03 in 4.0 mi North 5.8 mph - 0.07 in Rain , Thunderstorm Light Rain
1:29 PM 73.4 °F - 64.4 °F 73% 30.03 in 10.0 mi SE 8.1 mph - 0.07 in Rain Light Rain
1:53 PM 75.9 °F - 63.0 °F 64% 29.87 in 10.0 mi SSE 12.7 mph - 0.07 in   Mostly Cloudy
2:53 PM 81.0 °F 81.7 °F 61.0 °F 50% 29.85 in 10.0 mi South 18.4 mph 27.6 mph N/A   Partly Cloudy
3:53 PM 82.9 °F 83.3 °F 61.0 °F 47% 29.84 in 10.0 mi SSE 16.1 mph 21.9 mph N/A   Partly Cloudy
4:53 PM 82.0 °F 82.4 °F 60.1 °F 47% 29.84 in 10.0 mi SE 15.0 mph 21.9 mph N/A   Mostly Cloudy
5:53 PM 80.1 °F 81.1 °F 61.0 °F 52% 29.86 in 10.0 mi SE 15.0 mph 23.0 mph N/A   Mostly Cloudy
6:53 PM 77.0 °F - 57.9 °F 52% 29.86 in 10.0 mi SE 17.3 mph 25.3 mph N/A   Scattered Clouds
7:53 PM 68.0 °F - 60.1 °F 76% 29.92 in 10.0 mi ESE 20.7 mph 28.8 mph 0.00 in Rain Light Rain
8:53 PM 64.0 °F - 61.0 °F 90% 29.99 in 10.0 mi SE 16.1 mph 24.2 mph 0.01 in Rain Light Rain
9:21 PM 64.4 °F - 60.8 °F 88% 30.12 in 10.0 mi SE 15.0 mph 21.9 mph 0.00 in   Overcast
9:30 PM 64.4 °F - 60.8 °F 88% 30.12 in 10.0 mi SE 15.0 mph 23.0 mph 0.00 in   Overcast
9:43 PM 64.4 °F - 60.8 °F 88% 30.13 in 10.0 mi SSE 13.8 mph 20.7 mph 0.00 in   Overcast
9:50 PM 64.4 °F - 60.8 °F 88% 30.13 in 10.0 mi SSE 12.7 mph 19.6 mph 0.00 in   Overcast
9:53 PM 64.0 °F - 60.1 °F 87% 30.00 in 10.0 mi SSE 13.8 mph 20.7 mph 0.00 in   Overcast
10:53 PM 64.0 °F - 59.0 °F 84% 30.02 in 10.0 mi South 10.4 mph - N/A   Overcast
11:53 PM 64.0 °F - 59.0 °F 84% 30.04 in 10.0 mi SSE 5.8 mph - N/A   Overcast